小惑星2000 EJ37

(301964) 2000 EJ37 (2011)

English version
Home page
Updated on January 23, 2012

---------------------------------------------------------------------

・ プロフィール

・ 写真集

・ 軌道要素

The following orbital elements are taken from MPEC 2011-Q38:

Epoch 2011 Aug. 27.0 TT = JDT 2455800.5                 MPC
M  16.62743              (2000.0)            P               Q
n   0.09719405     Peri.  111.84433     +0.42511895     +0.90507709
a   4.6849999      Node   183.36897     -0.88220279     +0.41173534
e   0.7033985      Incl.   10.24970     -0.20246509     +0.10634598
P  10.1            H   13.4           G   0.15           U   0
From 321 observations at 4 oppositions, 2000-2011, mean residual 0".52.

・ 星図

・ 光度変化

        H = 13.6  G = 0.15

---------------------------------------------------------------------

軌道要素はMPCのEphemerides and Orbital Elementsに掲載されたものです。
星図はステラナビゲータ Ver.8 (アストロアーツ) で作成したものです。
光度グラフはComet for Windowsで作成したものです。

---------------------------------------------------------------------

Copyright(C) Seiichi Yoshida (comet@aerith.net). All rights reserved.